Location: Corralito
(10.2667°N, 66.9500°W)
Time: 09:20:07
(UTC+00:00)

GPS 2-15 Rocket1 - Pass Details

Date: 04 December 2023
Orbit: 617 x 666 km, 19.8° (Epoch: 02 March)

Event Time Altitude Azimuth Distance (km) Brightness Sun altitude
Exits shadow 09:49:21 12° 309° (NW) 1,841 4.9 -10.4°
Maximum altitude 09:53:04 32° 10° (N) 1,089 4.2 -9.5°
Drops below altitude 10° 09:57:20 10° 73° (ENE) 2,028 6.6 -8.6°
Sets 09:59:56 0° 83° (E) 2,947 7.8 -8.0°
